FW9856 Weather Reports


time (UTC)temp
C
wind
direction
speed
KPH
gust
KPH
rain 1hr
cm
rain 24hr
cm
rain mn
cm
humidity
%
barometer
mb
20260503213019 17 184 11.3 24.1 0.00 0.28 0.28 52 1008.3
20260503211515 17 202 11.3 32.2 0.00 0.28 0.28 51 1008.7
20260503210011 17 186 12.9 45.1 0.00 0.28 0.28 52 1008.9
20260503204520 17 184 16.1 37.0 0.00 0.28 0.28 52 1009.0
20260503203018 16 225 12.9 29.0 0.03 0.28 0.28 52 1009.1
20260503201520 17 196 14.5 33.8 0.03 0.28 0.28 53 1009.1
20260503200021 17 161 17.7 32.2 0.03 0.28 0.28 53 1009.3
20260503194518 16 202 14.5 29.0 0.03 0.28 0.28 57 1009.7
20260503193036 15 148 12.9 20.9 0.00 0.25 0.25 68 1010.1
20260503191518 13 134 11.3 22.5 0.03 0.25 0.25 70 1010.3
20260503190020 12 128 4.8 19.3 0.10 0.25 0.25 78 1010.8
20260503184525 10 111 8.0 16.1 0.13 0.25 0.25 84 1011.1
20260503183018 9 146 6.4 14.5 0.15 0.25 0.25 84 1011.4
20260503181519 9 180 8.0 19.3 0.13 0.23 0.23 82 1012.7
20260503180021 10 174 4.8 16.1 0.08 0.15 0.15 79 1013.7
20260503174528 10 200 8.0 24.1 0.10 0.13 0.13 81 1013.7
20260503173026 9 194 3.2 9.7 0.10 0.10 0.10 82 1013.8
20260503171523 9 198 6.4 14.5 0.10 0.10 0.10 81 1014.2
20260503081514 6 186 0.0 8.0 0.00 0.00 0.00 66 1015.4
20260503071533 6 186 3.2 8.0 0.00 0.00 0.00 65 1015.6
20260503054517 7 186 1.6 11.3 0.00 0.00 0.00 65 1016.3
20260503053022 7 188 1.6 9.7 0.00 0.00 0.00 65 1016.4
20260503051527 7 186 3.2 8.0 0.00 0.00 0.00 65 1016.5
20260503050017 7 192 1.6 8.0 0.00 0.00 0.00 66 1016.6
20260503044520 7 200 1.6 9.7 0.00 0.00 0.00 66 1016.6
20260503043017 7 195 0.0 4.8 0.00 0.00 0.00 66 1016.7
20260503041522 7 194 0.0 6.4 0.00 0.00 0.00 66 1016.7
20260503040027 7 199 0.0 4.8 0.00 0.00 0.00 65 1016.8
20260503034515 7 238 0.0 4.8 0.00 0.00 0.00 66 1016.7
20260503033017 7 242 0.0 3.2 0.00 0.00 0.00 66 1016.8
20260503031520 7 242 0.0 1.6 0.00 0.00 0.00 65 1017.1
20260503030022 7 242 0.0 3.2 0.00 0.00 0.00 64 1017.1
20260503024526 7 242 0.0 1.6 0.00 0.00 0.00 64 1017.2
20260503023026 8 242 0.0 3.2 0.00 0.00 0.00 62 1017.1
20260503021513 8 243 0.0 3.2 0.00 0.00 0.00 60 1017.2
20260503020020 8 244 0.0 1.6 0.00 0.00 0.00 58 1017.1
20260503014522 8 244 0.0 4.8 0.00 0.00 0.00 57 1017.0
20260503013031 9 266 0.0 1.6 0.00 0.00 0.00 56 1016.7
20260503011535 10 267 0.0 0.0 0.00 0.00 0.00 55 1016.7
20260503010016 10 267 0.0 1.6 0.00 0.00 0.00 53 1016.7
20260503004520 11 267 0.0 3.2 0.00 0.00 0.00 49 1016.8
20260503003023 11 267 0.0 9.7 0.00 0.00 0.00 48 1016.8
20260503001527 12 269 4.8 16.1 0.00 0.00 0.00 45 1016.8
20260503000028 12 257 4.8 12.9 0.00 0.00 0.00 43 1016.7
20260502234518 12 204 0.0 8.0 0.00 0.00 0.00 43 1017.0
20260502233021 12 300 1.6 8.0 0.00 0.00 0.00 45 1017.1
20260502231523 12 265 1.6 9.7 0.00 0.00 0.00 45 1017.2
20260502230028 12 311 4.8 14.5 0.00 0.00 0.00 43 1017.3
20260502224529 12 325 3.2 11.3 0.00 0.00 0.00 44 1017.3
20260502223019 12 257 3.2 11.3 0.00 0.00 0.00 44 1017.3
20260502221523 13 317 3.2 12.9 0.00 0.00 0.00 41 1017.3
20260502220028 12 261 1.6 6.4 0.00 0.00 0.00 45 1017.3
20260502214512 13 340 4.8 14.5 0.00 0.00 0.00 42 1017.4